N1NAZ-1 Weather Reports


time (UTC)temp
C
wind
direction
speed
KPH
gust
KPH
rain 1hr
cm
rain 24hr
cm
rain mn
cm
humidity
%
barometer
mb
20260507071241 10 33 0.0 4.8 0.00 0.74 0.00 89 1006.1
20260507064233 10 355 1.6 12.9 0.00 0.74 0.00 89 1006.1
20260507061234 10 222 1.6 12.9 0.00 0.74 0.00 89 1005.8
20260507054233 10 264 1.6 12.9 0.00 0.74 0.00 90 1006.6
20260507051224 11 308 1.6 12.9 0.00 0.74 0.00 91 1006.5
20260507044221 11 0 3.2 14.5 0.00 0.74 0.00 93 1006.0
20260507041222 12 306 1.6 14.5 0.00 0.74 0.00 94 1006.3
20260507034222 12 336 6.4 16.1 0.00 0.74 0.74 95 1005.9
20260507032550 13 14 1.6 16.1 0.00 0.74 0.74 96 1005.3
20260507024208 15 277 0.0 4.8 0.00 0.74 0.74 97 1005.2
20260507021153 15 149 0.0 3.2 0.03 0.74 0.74 97 1004.6
20260507014133 15 130 0.0 8.0 0.03 0.74 0.74 97 1004.7
20260507011126 15 192 0.0 8.0 0.00 0.71 0.71 97 1004.7
20260507004125 15 190 0.0 9.7 0.00 0.71 0.71 96 1004.7
20260507001123 15 126 0.0 6.4 0.00 0.71 0.71 96 1004.6
20260506234122 15 157 0.0 12.9 0.10 0.71 0.71 96 1004.4
20260506232509 15 162 1.6 11.3 0.13 0.71 0.71 96 1004.4
20260506224044 15 209 1.6 11.3 0.08 0.61 0.61 96 1004.6
20260506221040 15 134 1.6 11.3 0.13 0.58 0.58 95 1004.7
20260506214040 15 149 1.6 12.9 0.20 0.53 0.53 95 1004.8
20260506211043 15 171 3.2 22.5 0.25 0.46 0.46 94 1005.0
20260506204025 16 166 1.6 19.3 0.13 0.33 0.33 94 1005.3
20260506201028 16 122 1.6 14.5 0.03 0.20 0.23 93 1005.4
20260506195401 16 201 1.6 16.1 0.08 0.20 0.20 93 1005.5
20260506191012 17 167 0.0 4.8 0.18 0.18 0.18 91 1005.2
20260506184012 17 26 0.0 6.4 0.13 0.13 0.13 89 1005.7
20260506181024 19 262 1.6 14.5 0.00 0.00 0.03 80 1006.3
20260506174010 21 281 4.8 38.6 0.00 0.00 0.00 67 1006.1
20260506170946 23 185 4.8 29.0 0.00 0.00 0.00 60 1005.7
20260506163923 22 277 3.2 19.3 0.00 0.00 0.00 64 1006.1
20260506160855 21 143 1.6 19.3 0.00 0.00 0.00 66 1006.6
20260506155242 21 135 1.6 17.7 0.00 0.00 0.00 67 1007.4
20260506150831 21 152 1.6 22.5 0.00 0.00 0.00 67 1007.8
20260506143826 20 165 3.2 16.1 0.00 0.00 0.00 69 1007.7
20260506140819 20 95 4.8 14.5 0.00 0.00 0.00 71 1007.4
20260506133832 19 199 1.6 16.1 0.00 0.00 0.00 74 1007.7
20260506130819 18 158 3.2 16.1 0.00 0.00 0.00 75 1008.3
20260506124927 17 163 1.6 11.3 0.00 0.00 0.00 78 1008.4
20260506123820 18 118 1.6 12.9 0.00 0.00 0.00 76 1008.1
20260506120517 16 143 1.6 16.1 0.00 0.00 0.00 80 1008.5
20260506110749 16 166 1.6 12.9 0.00 0.00 0.00 81 1008.7
20260506110514 15 178 1.6 9.7 0.00 0.00 0.00 81 1008.7
20260506100739 15 149 1.6 9.7 0.00 0.00 0.00 80 1008.6
20260506095118 15 194 1.6 12.9 0.00 0.00 0.00 80 1008.4
20260506090737 16 155 1.6 12.9 0.00 0.00 0.00 78 1008.4
20260506083735 16 148 1.6 16.1 0.00 0.00 0.00 77 1008.5
20260506080737 16 190 1.6 14.5 0.00 0.00 0.00 76 1008.4